Year,Month,Day,Hour,Minute,Value (Times are PST for temperature in C)
2015,06,27,00,00,18.60
2015,06,27,00,01,18.50
2015,06,27,00,02,18.50
2015,06,27,00,03,18.40
2015,06,27,00,04,18.40
2015,06,27,00,05,18.40
2015,06,27,00,06,18.40
2015,06,27,00,07,18.40
2015,06,27,00,08,18.40
2015,06,27,00,09,18.40
2015,06,27,00,10,18.40
2015,06,27,00,11,18.40
2015,06,27,00,12,18.40
2015,06,27,00,13,18.30
2015,06,27,00,14,18.30
2015,06,27,00,15,18.30
2015,06,27,00,16,18.30
2015,06,27,00,17,18.30
2015,06,27,00,18,18.30
2015,06,27,00,19,18.20
2015,06,27,00,20,18.20
2015,06,27,00,21,18.20
2015,06,27,00,22,18.20
2015,06,27,00,23,18.20
2015,06,27,00,24,18.20
2015,06,27,00,25,18.10
2015,06,27,00,26,18.10
2015,06,27,00,27,18.10
2015,06,27,00,28,18.00
2015,06,27,00,29,17.90
2015,06,27,00,30,17.90
2015,06,27,00,31,17.90
2015,06,27,00,32,17.90
2015,06,27,00,33,17.90
2015,06,27,00,34,17.90
2015,06,27,00,35,17.80
2015,06,27,00,36,17.80
2015,06,27,00,37,17.80
2015,06,27,00,38,17.80
2015,06,27,00,39,17.80
2015,06,27,00,40,17.80
2015,06,27,00,41,17.80
2015,06,27,00,42,17.80
2015,06,27,00,43,17.80
2015,06,27,00,44,17.90
2015,06,27,00,45,17.90
2015,06,27,00,46,17.90
2015,06,27,00,47,17.90
2015,06,27,00,48,17.90
2015,06,27,00,49,17.90
2015,06,27,00,50,17.90
2015,06,27,00,51,17.90
2015,06,27,00,52,17.90
2015,06,27,00,53,17.90
2015,06,27,00,54,17.90
2015,06,27,00,55,17.90
2015,06,27,00,56,17.80
2015,06,27,00,57,17.80
2015,06,27,00,58,17.80
2015,06,27,00,59,17.80
2015,06,27,01,00,17.80
2015,06,27,01,01,17.70
2015,06,27,01,02,17.70
2015,06,27,01,03,17.70
2015,06,27,01,04,17.70
2015,06,27,01,05,17.70
2015,06,27,01,06,17.60
2015,06,27,01,07,17.60
2015,06,27,01,08,17.60
2015,06,27,01,09,17.60
2015,06,27,01,10,17.60
2015,06,27,01,11,17.60
2015,06,27,01,12,17.60
2015,06,27,01,13,17.60
2015,06,27,01,14,17.60
2015,06,27,01,15,17.60
2015,06,27,01,16,17.50
2015,06,27,01,17,17.40
2015,06,27,01,18,17.30
2015,06,27,01,19,17.20
2015,06,27,01,20,17.20
2015,06,27,01,21,17.10
2015,06,27,01,22,17.10
2015,06,27,01,23,17.00
2015,06,27,01,24,17.00
2015,06,27,01,25,17.00
2015,06,27,01,26,17.00
2015,06,27,01,27,17.00
2015,06,27,01,28,17.00
2015,06,27,01,29,16.90
2015,06,27,01,30,16.90
2015,06,27,01,31,16.90
2015,06,27,01,32,16.90
2015,06,27,01,33,16.90
2015,06,27,01,34,16.90
2015,06,27,01,35,16.90
2015,06,27,01,36,16.80
2015,06,27,01,37,16.80
2015,06,27,01,38,16.80
2015,06,27,01,39,16.80
2015,06,27,01,40,16.80
2015,06,27,01,41,16.90
2015,06,27,01,42,16.90
2015,06,27,01,43,16.90
2015,06,27,01,44,16.90
2015,06,27,01,45,17.00
2015,06,27,01,46,17.00
2015,06,27,01,47,17.10
2015,06,27,01,48,17.10
2015,06,27,01,49,17.20
2015,06,27,01,50,17.30
2015,06,27,01,51,17.30
2015,06,27,01,52,17.30
2015,06,27,01,53,17.40
2015,06,27,01,54,17.40
2015,06,27,01,55,17.40
2015,06,27,01,56,17.40
2015,06,27,01,57,17.40
2015,06,27,01,58,17.40
2015,06,27,01,59,17.40
2015,06,27,02,00,17.30
2015,06,27,02,01,17.30
2015,06,27,02,02,17.30
2015,06,27,02,03,17.30
2015,06,27,02,04,17.40
2015,06,27,02,05,17.40
2015,06,27,02,06,17.40
2015,06,27,02,07,17.40
2015,06,27,02,08,17.50
2015,06,27,02,09,17.50
2015,06,27,02,10,17.50
2015,06,27,02,11,17.50
2015,06,27,02,12,17.50
2015,06,27,02,13,17.60
2015,06,27,02,14,17.60
2015,06,27,02,15,17.60
2015,06,27,02,16,17.60
2015,06,27,02,17,17.60
2015,06,27,02,18,17.60
2015,06,27,02,19,17.60
2015,06,27,02,20,17.50
2015,06,27,02,21,17.50
2015,06,27,02,22,17.50
2015,06,27,02,23,17.50
2015,06,27,02,24,17.50
2015,06,27,02,25,17.40
2015,06,27,02,26,17.40
2015,06,27,02,27,17.40
2015,06,27,02,28,17.40
2015,06,27,02,29,17.40
2015,06,27,02,30,17.40
2015,06,27,02,31,17.40
2015,06,27,02,32,17.40
2015,06,27,02,33,17.40
2015,06,27,02,34,17.40
2015,06,27,02,35,17.30
2015,06,27,02,36,17.30
2015,06,27,02,37,17.30
2015,06,27,02,38,17.30
2015,06,27,02,39,17.30
2015,06,27,02,40,17.30
2015,06,27,02,41,17.30
2015,06,27,02,42,17.30
2015,06,27,02,43,17.30
2015,06,27,02,44,17.30
2015,06,27,02,45,17.20
2015,06,27,02,46,17.20
2015,06,27,02,47,17.20
2015,06,27,02,48,17.20
2015,06,27,02,49,17.20
2015,06,27,02,50,17.10
2015,06,27,02,51,17.10
2015,06,27,02,52,17.10
2015,06,27,02,53,17.20
2015,06,27,02,54,17.20
2015,06,27,02,55,17.20
2015,06,27,02,56,17.10
2015,06,27,02,57,17.10
2015,06,27,02,58,17.10
2015,06,27,02,59,17.10
2015,06,27,03,00,17.10
2015,06,27,03,01,17.00
2015,06,27,03,02,17.00
2015,06,27,03,03,17.00
2015,06,27,03,04,17.00
2015,06,27,03,05,17.00
2015,06,27,03,06,17.00
2015,06,27,03,07,17.00
2015,06,27,03,08,16.90
2015,06,27,03,09,16.90
2015,06,27,03,10,16.90
2015,06,27,03,11,16.90
2015,06,27,03,12,16.90
2015,06,27,03,13,16.90
2015,06,27,03,14,16.90
2015,06,27,03,15,16.90
2015,06,27,03,16,16.90
2015,06,27,03,17,16.90
2015,06,27,03,18,16.90
2015,06,27,03,19,16.90
2015,06,27,03,20,16.90
2015,06,27,03,21,16.90
2015,06,27,03,22,16.90
2015,06,27,03,23,16.90
2015,06,27,03,24,16.90
2015,06,27,03,25,16.90
2015,06,27,03,26,16.90
2015,06,27,03,27,16.90
2015,06,27,03,28,16.90
2015,06,27,03,29,16.90
2015,06,27,03,30,16.90
2015,06,27,03,31,16.90
2015,06,27,03,32,16.90
2015,06,27,03,33,16.90
2015,06,27,03,34,16.90
2015,06,27,03,35,16.90
2015,06,27,03,36,16.80
2015,06,27,03,37,16.80
2015,06,27,03,38,16.80
2015,06,27,03,39,16.80
2015,06,27,03,40,16.80
2015,06,27,03,41,16.70
2015,06,27,03,42,16.70
2015,06,27,03,43,16.70
2015,06,27,03,44,16.70
2015,06,27,03,45,16.70
2015,06,27,03,46,16.70
2015,06,27,03,47,16.70
2015,06,27,03,48,16.70
2015,06,27,03,49,16.80
2015,06,27,03,50,16.80
2015,06,27,03,51,16.80
2015,06,27,03,52,16.90
2015,06,27,03,53,16.90
2015,06,27,03,54,16.90
2015,06,27,03,55,16.90
2015,06,27,03,56,16.90
2015,06,27,03,57,16.90
2015,06,27,03,58,17.00
2015,06,27,03,59,17.00
2015,06,27,04,00,17.00
2015,06,27,04,01,17.00
2015,06,27,04,02,17.00
2015,06,27,04,03,17.00
2015,06,27,04,04,17.00
2015,06,27,04,05,17.00
2015,06,27,04,06,17.00
2015,06,27,04,07,17.00
2015,06,27,04,08,17.00
2015,06,27,04,09,17.00
2015,06,27,04,10,17.00
2015,06,27,04,11,17.00
2015,06,27,04,12,17.00
2015,06,27,04,13,17.00
2015,06,27,04,14,17.00
2015,06,27,04,15,17.00
2015,06,27,04,16,17.00
2015,06,27,04,17,17.00
2015,06,27,04,18,17.00
2015,06,27,04,19,17.00
2015,06,27,04,20,17.00
2015,06,27,04,21,17.00
2015,06,27,04,22,17.00
2015,06,27,04,23,17.00
2015,06,27,04,24,17.00
2015,06,27,04,25,17.00
2015,06,27,04,26,17.00
2015,06,27,04,27,17.00
2015,06,27,04,28,17.00
2015,06,27,04,29,17.00
2015,06,27,04,30,17.00
2015,06,27,04,31,17.00
2015,06,27,04,32,17.00
2015,06,27,04,33,17.00
2015,06,27,04,34,17.00
2015,06,27,04,35,17.10
2015,06,27,04,36,17.10
2015,06,27,04,37,17.10
2015,06,27,04,38,17.10
2015,06,27,04,39,17.10
2015,06,27,04,40,17.10
2015,06,27,04,41,17.10
2015,06,27,04,42,17.00
2015,06,27,04,43,17.00
2015,06,27,04,44,17.00
2015,06,27,04,45,17.00
2015,06,27,04,46,17.00
2015,06,27,04,47,17.00
2015,06,27,04,48,17.00
2015,06,27,04,49,17.00
2015,06,27,04,50,17.00
2015,06,27,04,51,17.00
2015,06,27,04,52,16.90
2015,06,27,04,53,16.90
2015,06,27,04,54,16.90
2015,06,27,04,55,16.90
2015,06,27,04,56,16.90
2015,06,27,04,57,16.90
2015,06,27,04,58,16.90
2015,06,27,04,59,16.90
2015,06,27,05,00,16.90
2015,06,27,05,01,16.90
2015,06,27,05,02,16.90
2015,06,27,05,03,16.90
2015,06,27,05,04,16.90
2015,06,27,05,05,16.90
2015,06,27,05,06,16.90
2015,06,27,05,07,16.90
2015,06,27,05,08,16.90
2015,06,27,05,09,16.90
2015,06,27,05,10,16.90
2015,06,27,05,11,16.90
2015,06,27,05,12,16.90
2015,06,27,05,13,16.90
2015,06,27,05,14,16.90
2015,06,27,05,15,16.90
2015,06,27,05,16,16.80
2015,06,27,05,17,16.80
2015,06,27,05,18,16.80
2015,06,27,05,19,16.70
2015,06,27,05,20,16.70
2015,06,27,05,21,16.70
2015,06,27,05,22,16.70
2015,06,27,05,23,16.70
2015,06,27,05,24,16.70
2015,06,27,05,25,16.60
2015,06,27,05,26,16.60
2015,06,27,05,27,16.60
2015,06,27,05,28,16.50
2015,06,27,05,29,16.40
2015,06,27,05,30,16.40
2015,06,27,05,31,16.40
2015,06,27,05,32,16.40
2015,06,27,05,33,16.40
2015,06,27,05,34,16.40
2015,06,27,05,35,16.40
2015,06,27,05,36,16.40
2015,06,27,05,37,16.50
2015,06,27,05,38,16.60
2015,06,27,05,39,16.60
2015,06,27,05,40,16.60
2015,06,27,05,41,16.60
2015,06,27,05,42,16.70
2015,06,27,05,43,16.70
2015,06,27,05,44,16.70
2015,06,27,05,45,16.70
2015,06,27,05,46,16.60
2015,06,27,05,47,16.60
2015,06,27,05,48,16.40
2015,06,27,05,49,16.40
2015,06,27,05,50,16.30
2015,06,27,05,51,16.20
2015,06,27,05,52,16.10
2015,06,27,05,53,16.10
2015,06,27,05,54,16.00
2015,06,27,05,55,15.80
2015,06,27,05,56,15.70
2015,06,27,05,57,15.60
2015,06,27,05,58,15.50
2015,06,27,05,59,15.30
2015,06,27,06,00,15.20
2015,06,27,06,01,15.10
2015,06,27,06,02,15.10
2015,06,27,06,03,15.00
2015,06,27,06,04,14.90
2015,06,27,06,05,14.80
2015,06,27,06,06,14.80
2015,06,27,06,07,14.80
2015,06,27,06,08,14.70
2015,06,27,06,09,14.70
2015,06,27,06,10,14.60
2015,06,27,06,11,14.60
2015,06,27,06,12,14.60
2015,06,27,06,13,14.50
2015,06,27,06,14,14.50
2015,06,27,06,15,14.50
2015,06,27,06,16,14.50
2015,06,27,06,17,14.50
2015,06,27,06,18,14.50
2015,06,27,06,19,14.50
2015,06,27,06,20,14.50
2015,06,27,06,21,14.60
2015,06,27,06,22,14.60
2015,06,27,06,23,14.70
2015,06,27,06,24,14.70
2015,06,27,06,25,14.80
2015,06,27,06,26,14.80
2015,06,27,06,27,14.80
2015,06,27,06,28,14.90
2015,06,27,06,29,15.00
2015,06,27,06,30,15.00
2015,06,27,06,31,15.10
2015,06,27,06,32,15.20
2015,06,27,06,33,15.30
2015,06,27,06,34,15.30
2015,06,27,06,35,15.40
2015,06,27,06,36,15.50
2015,06,27,06,37,15.60
2015,06,27,06,38,15.60
2015,06,27,06,39,15.70
2015,06,27,06,40,15.80
2015,06,27,06,41,15.80
2015,06,27,06,42,15.80
2015,06,27,06,43,15.90
2015,06,27,06,44,15.90
2015,06,27,06,45,16.00
2015,06,27,06,46,16.10
2015,06,27,06,47,16.10
2015,06,27,06,48,16.20
2015,06,27,06,49,16.20
2015,06,27,06,50,16.30
2015,06,27,06,51,16.40
2015,06,27,06,52,16.40
2015,06,27,06,53,16.60
2015,06,27,06,54,16.60
2015,06,27,06,55,16.70
2015,06,27,06,56,16.70
2015,06,27,06,57,16.70
2015,06,27,06,58,16.70
2015,06,27,06,59,16.80
2015,06,27,07,00,16.80
2015,06,27,07,01,16.80
2015,06,27,07,02,16.80
2015,06,27,07,03,16.80
2015,06,27,07,04,16.80
2015,06,27,07,05,16.80
2015,06,27,07,06,16.90
2015,06,27,07,07,16.90
2015,06,27,07,08,17.00
2015,06,27,07,09,17.00
2015,06,27,07,10,17.10
2015,06,27,07,11,17.10
2015,06,27,07,12,17.20
2015,06,27,07,13,17.20
2015,06,27,07,14,17.20
2015,06,27,07,15,17.20
2015,06,27,07,16,17.20
2015,06,27,07,17,17.30
2015,06,27,07,18,17.30
2015,06,27,07,19,17.40
2015,06,27,07,20,17.50
2015,06,27,07,21,17.70
2015,06,27,07,22,17.70
2015,06,27,07,23,17.90
2015,06,27,07,24,18.00
2015,06,27,07,25,18.10
2015,06,27,07,26,18.30
2015,06,27,07,27,18.30
2015,06,27,07,28,18.40
2015,06,27,07,29,18.50
2015,06,27,07,30,18.60
2015,06,27,07,31,18.70
2015,06,27,07,32,18.80
2015,06,27,07,33,18.90
2015,06,27,07,34,19.00
2015,06,27,07,35,19.10
2015,06,27,07,36,19.10
2015,06,27,07,37,19.10
2015,06,27,07,38,19.10
2015,06,27,07,39,19.20
2015,06,27,07,40,19.30
2015,06,27,07,41,19.40
2015,06,27,07,42,19.50
2015,06,27,07,43,19.60
2015,06,27,07,44,19.70
2015,06,27,07,45,19.80
2015,06,27,07,46,19.90
2015,06,27,07,47,19.90
2015,06,27,07,48,19.90
2015,06,27,07,49,20.00
2015,06,27,07,50,20.10
2015,06,27,07,51,20.10
2015,06,27,07,52,20.10
2015,06,27,07,53,20.00
2015,06,27,07,54,19.90
2015,06,27,07,55,19.90
2015,06,27,07,56,19.90
2015,06,27,07,57,19.80
2015,06,27,07,58,19.80
2015,06,27,07,59,19.80
2015,06,27,08,00,19.70
2015,06,27,08,01,19.70
2015,06,27,08,02,19.70
2015,06,27,08,03,19.70
2015,06,27,08,04,19.60
2015,06,27,08,05,19.60
2015,06,27,08,06,19.60
2015,06,27,08,07,19.60
2015,06,27,08,08,19.50
2015,06,27,08,09,19.50
2015,06,27,08,10,19.60
2015,06,27,08,11,19.60
2015,06,27,08,12,19.60
2015,06,27,08,13,19.60
2015,06,27,08,14,19.70
2015,06,27,08,15,19.80
2015,06,27,08,16,19.80
2015,06,27,08,17,19.70
2015,06,27,08,18,19.70
2015,06,27,08,19,19.60
2015,06,27,08,20,19.60
2015,06,27,08,21,19.50
2015,06,27,08,22,19.50
2015,06,27,08,23,19.50
2015,06,27,08,24,19.50
2015,06,27,08,25,19.50
2015,06,27,08,26,19.50
2015,06,27,08,27,19.50
2015,06,27,08,28,19.60
2015,06,27,08,29,19.50
2015,06,27,08,30,19.50
2015,06,27,08,31,19.50
2015,06,27,08,32,19.60
2015,06,27,08,33,19.60
2015,06,27,08,34,19.60
2015,06,27,08,35,19.60
2015,06,27,08,36,19.70
2015,06,27,08,37,19.70
2015,06,27,08,38,19.70
2015,06,27,08,39,19.70
2015,06,27,08,40,19.70
2015,06,27,08,41,19.70
2015,06,27,08,42,19.70
2015,06,27,08,43,19.80
2015,06,27,08,44,19.90
2015,06,27,08,45,20.00
2015,06,27,08,46,20.10
2015,06,27,08,47,20.20
2015,06,27,08,48,20.30
2015,06,27,08,49,20.50
2015,06,27,08,50,20.60
2015,06,27,08,51,20.70
2015,06,27,08,52,20.80
2015,06,27,08,53,20.90
2015,06,27,08,54,21.00
2015,06,27,08,55,21.00
2015,06,27,08,56,21.00
2015,06,27,08,57,20.90
2015,06,27,08,58,20.80
2015,06,27,08,59,20.80
2015,06,27,09,00,20.70
2015,06,27,09,01,20.70
2015,06,27,09,02,20.70
2015,06,27,09,03,20.70
2015,06,27,09,04,20.80
2015,06,27,09,05,20.90
2015,06,27,09,06,20.90
2015,06,27,09,07,20.90
2015,06,27,09,08,20.90
2015,06,27,09,09,20.90
2015,06,27,09,10,21.00
2015,06,27,09,11,21.00
2015,06,27,09,12,21.00
2015,06,27,09,13,21.00
2015,06,27,09,14,20.90
2015,06,27,09,15,20.90
2015,06,27,09,16,20.90
2015,06,27,09,17,20.90
2015,06,27,09,18,20.90
2015,06,27,09,19,20.90
2015,06,27,09,20,20.90
2015,06,27,09,21,20.90
2015,06,27,09,22,20.90
2015,06,27,09,23,20.90
2015,06,27,09,24,20.90
2015,06,27,09,25,21.00
2015,06,27,09,26,21.00
2015,06,27,09,27,21.00
2015,06,27,09,28,21.00
2015,06,27,09,29,21.10
2015,06,27,09,30,21.10
2015,06,27,09,31,21.20
2015,06,27,09,32,21.10
2015,06,27,09,33,20.90
2015,06,27,09,34,20.70
2015,06,27,09,35,20.40
2015,06,27,09,36,20.20
2015,06,27,09,37,19.90
2015,06,27,09,38,19.50
2015,06,27,09,39,19.20
2015,06,27,09,40,18.90
2015,06,27,09,41,18.70
2015,06,27,09,42,18.50
2015,06,27,09,43,18.40
2015,06,27,09,44,18.30
2015,06,27,09,45,18.20
2015,06,27,09,46,18.20
2015,06,27,09,47,18.10
2015,06,27,09,48,18.10
2015,06,27,09,49,17.90
2015,06,27,09,50,17.60
2015,06,27,09,51,17.20
2015,06,27,09,52,17.00
2015,06,27,09,53,16.80
2015,06,27,09,54,16.60
2015,06,27,09,55,16.50
2015,06,27,09,56,16.30
2015,06,27,09,57,16.20
2015,06,27,09,58,16.20
2015,06,27,09,59,16.10
2015,06,27,10,00,16.10
2015,06,27,10,01,16.10
2015,06,27,10,02,16.10
2015,06,27,10,03,16.10
2015,06,27,10,04,16.20
2015,06,27,10,05,16.30
2015,06,27,10,06,16.40
2015,06,27,10,07,16.50
2015,06,27,10,08,16.60
2015,06,27,10,09,16.70
2015,06,27,10,10,16.70
2015,06,27,10,11,16.80
2015,06,27,10,12,17.00
2015,06,27,10,13,17.00
2015,06,27,10,14,17.10
2015,06,27,10,15,17.30
2015,06,27,10,16,17.40
2015,06,27,10,17,17.40
2015,06,27,10,18,17.50
2015,06,27,10,19,17.50
2015,06,27,10,20,17.60
2015,06,27,10,21,17.70
2015,06,27,10,22,17.70
2015,06,27,10,23,17.80
2015,06,27,10,24,17.90
2015,06,27,10,25,18.00
2015,06,27,10,26,18.20
2015,06,27,10,27,18.30
2015,06,27,10,28,18.40
2015,06,27,10,29,18.60
2015,06,27,10,30,18.70
2015,06,27,10,31,18.90
2015,06,27,10,32,19.00
2015,06,27,10,33,19.10
2015,06,27,10,34,19.30
2015,06,27,10,35,19.40
2015,06,27,10,36,19.60
2015,06,27,10,37,19.70
2015,06,27,10,38,19.90
2015,06,27,10,39,20.00
2015,06,27,10,40,20.20
2015,06,27,10,41,20.20
2015,06,27,10,42,20.40
2015,06,27,10,43,20.60
2015,06,27,10,44,20.80
2015,06,27,10,45,21.00
2015,06,27,10,46,21.10
2015,06,27,10,47,21.30
2015,06,27,10,48,21.50
2015,06,27,10,49,21.70
2015,06,27,10,50,21.90
2015,06,27,10,51,22.10
2015,06,27,10,52,22.30
2015,06,27,10,53,22.40
2015,06,27,10,54,22.60
2015,06,27,10,55,22.70
2015,06,27,10,56,22.80
2015,06,27,10,57,22.90
2015,06,27,10,58,22.90
2015,06,27,10,59,23.10
2015,06,27,11,00,23.20
2015,06,27,11,01,23.30
2015,06,27,11,02,23.30
2015,06,27,11,03,23.40
2015,06,27,11,04,23.50
2015,06,27,11,05,23.60
2015,06,27,11,06,23.80
2015,06,27,11,07,23.90
2015,06,27,11,08,24.00
2015,06,27,11,09,24.10
2015,06,27,11,10,24.10
2015,06,27,11,11,24.20
2015,06,27,11,12,24.30
2015,06,27,11,13,24.40
2015,06,27,11,14,24.40
2015,06,27,11,15,24.50
2015,06,27,11,16,24.40
2015,06,27,11,17,24.40
2015,06,27,11,18,24.40
2015,06,27,11,19,24.40
2015,06,27,11,20,24.40
2015,06,27,11,21,24.40
2015,06,27,11,22,24.50
2015,06,27,11,23,24.70
2015,06,27,11,24,24.80
2015,06,27,11,25,25.00
2015,06,27,11,26,25.10
2015,06,27,11,27,25.20
2015,06,27,11,28,25.30
2015,06,27,11,29,25.40
2015,06,27,11,30,25.50
2015,06,27,11,31,25.60
2015,06,27,11,32,25.60
2015,06,27,11,33,25.70
2015,06,27,11,34,25.70
2015,06,27,11,35,25.80
2015,06,27,11,36,25.90
2015,06,27,11,37,25.90
2015,06,27,11,38,25.70
2015,06,27,11,39,25.40
2015,06,27,11,40,25.20
2015,06,27,11,41,25.20
2015,06,27,11,42,25.00
2015,06,27,11,43,24.90
2015,06,27,11,44,24.70
2015,06,27,11,45,24.40
2015,06,27,11,46,24.20
2015,06,27,11,47,24.00
2015,06,27,11,48,23.90
2015,06,27,11,49,23.90
2015,06,27,11,50,23.90
2015,06,27,11,51,23.90
2015,06,27,11,52,23.90
2015,06,27,11,53,23.90
2015,06,27,11,54,23.80
2015,06,27,11,55,23.80
2015,06,27,11,56,23.70
2015,06,27,11,57,23.60
2015,06,27,11,58,23.60
2015,06,27,11,59,23.60
2015,06,27,12,00,23.50
2015,06,27,12,01,23.40
2015,06,27,12,02,23.50
2015,06,27,12,03,23.60
2015,06,27,12,04,23.60
2015,06,27,12,05,23.60
2015,06,27,12,06,23.50
2015,06,27,12,07,23.30
2015,06,27,12,08,23.20
2015,06,27,12,09,23.10
2015,06,27,12,10,22.90
2015,06,27,12,11,22.90
2015,06,27,12,12,22.90
2015,06,27,12,13,22.90
2015,06,27,12,14,22.80
2015,06,27,12,15,22.60
2015,06,27,12,16,22.60
2015,06,27,12,17,22.50
2015,06,27,12,18,22.60
2015,06,27,12,19,22.70
2015,06,27,12,20,22.80
2015,06,27,12,21,22.90
2015,06,27,12,22,22.90
2015,06,27,12,23,22.90
2015,06,27,12,24,22.90
2015,06,27,12,25,22.90
2015,06,27,12,26,22.80
2015,06,27,12,27,22.70
2015,06,27,12,28,22.60
2015,06,27,12,29,22.50
2015,06,27,12,30,22.50
2015,06,27,12,31,22.50
2015,06,27,12,32,22.50
2015,06,27,12,33,22.40
2015,06,27,12,34,22.40
2015,06,27,12,35,22.40
2015,06,27,12,36,22.40
2015,06,27,12,37,22.50
2015,06,27,12,38,22.50
2015,06,27,12,39,22.50
2015,06,27,12,40,22.30
2015,06,27,12,41,22.20
2015,06,27,12,42,22.10
2015,06,27,12,43,22.10
2015,06,27,12,44,22.10
2015,06,27,12,45,22.10
2015,06,27,12,46,22.30
2015,06,27,12,47,22.40
2015,06,27,12,48,22.50
2015,06,27,12,49,22.40
2015,06,27,12,50,22.50
2015,06,27,12,51,22.70
2015,06,27,12,52,22.80
2015,06,27,12,53,22.80
2015,06,27,12,54,22.80
2015,06,27,12,55,22.80
2015,06,27,12,56,22.80
2015,06,27,12,57,22.90
2015,06,27,12,58,22.90
2015,06,27,12,59,22.90
2015,06,27,13,00,22.80
2015,06,27,13,01,22.60
2015,06,27,13,02,22.50
2015,06,27,13,03,22.50
2015,06,27,13,04,22.60
2015,06,27,13,05,22.70
2015,06,27,13,06,22.60
2015,06,27,13,07,22.60
2015,06,27,13,08,22.60
2015,06,27,13,09,22.60
2015,06,27,13,10,22.70
2015,06,27,13,11,22.80
2015,06,27,13,12,22.80
2015,06,27,13,13,22.90
2015,06,27,13,14,23.00
2015,06,27,13,15,23.10
2015,06,27,13,16,22.90
2015,06,27,13,17,22.90
2015,06,27,13,18,22.90
2015,06,27,13,19,23.00
2015,06,27,13,20,23.00
2015,06,27,13,21,22.90
2015,06,27,13,22,22.90
2015,06,27,13,23,22.90
2015,06,27,13,24,22.90
2015,06,27,13,25,22.90
2015,06,27,13,26,22.90
2015,06,27,13,27,22.80
2015,06,27,13,28,22.80
2015,06,27,13,29,22.80
2015,06,27,13,30,22.80
2015,06,27,13,31,22.90
2015,06,27,13,32,23.10
2015,06,27,13,33,23.30
2015,06,27,13,34,23.30
2015,06,27,13,35,23.30
2015,06,27,13,36,23.30
2015,06,27,13,37,23.40
2015,06,27,13,38,23.60
2015,06,27,13,39,23.70
2015,06,27,13,40,24.00
2015,06,27,13,41,24.10
2015,06,27,13,42,24.20
2015,06,27,13,43,24.20
2015,06,27,13,44,24.40
2015,06,27,13,45,24.40
2015,06,27,13,46,24.40
2015,06,27,13,47,24.40
2015,06,27,13,48,24.30
2015,06,27,13,49,24.30
2015,06,27,13,50,24.30
2015,06,27,13,51,24.20
2015,06,27,13,52,24.30
2015,06,27,13,53,24.30
2015,06,27,13,54,24.40
2015,06,27,13,55,24.40
2015,06,27,13,56,24.30
2015,06,27,13,57,24.10
2015,06,27,13,58,24.00
2015,06,27,13,59,23.80
2015,06,27,14,00,23.80
2015,06,27,14,01,23.80
2015,06,27,14,02,23.80
2015,06,27,14,03,23.80
2015,06,27,14,04,23.90
2015,06,27,14,05,24.00
2015,06,27,14,06,24.10
2015,06,27,14,07,24.10
2015,06,27,14,08,24.10
2015,06,27,14,09,24.10
2015,06,27,14,10,24.20
2015,06,27,14,11,24.30
2015,06,27,14,12,24.40
2015,06,27,14,13,24.40
2015,06,27,14,14,24.40
2015,06,27,14,15,24.50
2015,06,27,14,16,24.60
2015,06,27,14,17,24.70
2015,06,27,14,18,24.70
2015,06,27,14,19,24.70
2015,06,27,14,20,24.80
2015,06,27,14,21,24.90
2015,06,27,14,22,24.90
2015,06,27,14,23,25.00
2015,06,27,14,24,25.10
2015,06,27,14,25,25.30
2015,06,27,14,26,25.40
2015,06,27,14,27,25.50
2015,06,27,14,28,25.70
2015,06,27,14,29,25.80
2015,06,27,14,30,25.90
2015,06,27,14,31,26.00
2015,06,27,14,32,26.10
2015,06,27,14,33,26.10
2015,06,27,14,34,26.10
2015,06,27,14,35,26.00
2015,06,27,14,36,26.10
2015,06,27,14,37,26.10
2015,06,27,14,38,26.20
2015,06,27,14,39,26.30
2015,06,27,14,40,26.40
2015,06,27,14,41,26.50
2015,06,27,14,42,26.40
2015,06,27,14,43,26.30
2015,06,27,14,44,26.20
2015,06,27,14,45,26.20
2015,06,27,14,46,26.30
2015,06,27,14,47,26.30
2015,06,27,14,48,26.50
2015,06,27,14,49,26.60
2015,06,27,14,50,26.70
2015,06,27,14,51,26.80
2015,06,27,14,52,26.90
2015,06,27,14,53,27.00
2015,06,27,14,54,27.10
2015,06,27,14,55,27.10
2015,06,27,14,56,27.10
2015,06,27,14,57,27.00
2015,06,27,14,58,26.90
2015,06,27,14,59,26.90
2015,06,27,15,00,26.90
2015,06,27,15,01,26.90
2015,06,27,15,02,26.90
2015,06,27,15,03,27.00
2015,06,27,15,04,27.10
2015,06,27,15,05,27.30
2015,06,27,15,06,27.40
2015,06,27,15,07,27.50
2015,06,27,15,08,27.60
2015,06,27,15,09,27.50
2015,06,27,15,10,27.60
2015,06,27,15,11,27.60
2015,06,27,15,12,27.60
2015,06,27,15,13,27.60
2015,06,27,15,14,27.40
2015,06,27,15,15,27.30
2015,06,27,15,16,27.30
2015,06,27,15,17,27.30
2015,06,27,15,18,27.40
2015,06,27,15,19,27.30
2015,06,27,15,20,27.40
2015,06,27,15,21,27.40
2015,06,27,15,22,27.40
2015,06,27,15,23,27.40
2015,06,27,15,24,27.40
2015,06,27,15,25,27.40
2015,06,27,15,26,27.40
2015,06,27,15,27,27.40
2015,06,27,15,28,27.40
2015,06,27,15,29,27.50
2015,06,27,15,30,27.60
2015,06,27,15,31,27.60
2015,06,27,15,32,27.70
2015,06,27,15,33,27.70
2015,06,27,15,34,27.80
2015,06,27,15,35,28.00
2015,06,27,15,36,28.10
2015,06,27,15,37,28.20
2015,06,27,15,38,28.40
2015,06,27,15,39,28.50
2015,06,27,15,40,28.60
2015,06,27,15,41,28.60
2015,06,27,15,42,28.60
2015,06,27,15,43,28.60
2015,06,27,15,44,28.60
2015,06,27,15,45,28.70
2015,06,27,15,46,28.70
2015,06,27,15,47,28.60
2015,06,27,15,48,28.50
2015,06,27,15,49,28.40
2015,06,27,15,50,28.40
2015,06,27,15,51,28.30
2015,06,27,15,52,28.20
2015,06,27,15,53,28.20
2015,06,27,15,54,28.10
2015,06,27,15,55,28.00
2015,06,27,15,56,28.00
2015,06,27,15,57,28.10
2015,06,27,15,58,28.10
2015,06,27,15,59,28.20
2015,06,27,16,00,28.40
2015,06,27,16,01,28.50
2015,06,27,16,02,28.60
2015,06,27,16,03,28.60
2015,06,27,16,04,28.60
2015,06,27,16,05,28.70
2015,06,27,16,06,28.70
2015,06,27,16,07,28.70
2015,06,27,16,08,28.60
2015,06,27,16,09,28.60
2015,06,27,16,10,28.60
2015,06,27,16,11,28.50
2015,06,27,16,12,28.40
2015,06,27,16,13,28.20
2015,06,27,16,14,28.00
2015,06,27,16,15,27.90
2015,06,27,16,16,27.80
2015,06,27,16,17,27.80
2015,06,27,16,18,27.70
2015,06,27,16,19,27.70
2015,06,27,16,20,27.60
2015,06,27,16,21,27.50
2015,06,27,16,22,27.40
2015,06,27,16,23,27.30
2015,06,27,16,24,27.30
2015,06,27,16,25,27.30
2015,06,27,16,26,27.40
2015,06,27,16,27,27.40
2015,06,27,16,28,27.40
2015,06,27,16,29,27.40
2015,06,27,16,30,27.40
2015,06,27,16,31,27.40
2015,06,27,16,32,27.40
2015,06,27,16,33,27.40
2015,06,27,16,34,27.40
2015,06,27,16,35,27.30
2015,06,27,16,36,27.30
2015,06,27,16,37,27.40
2015,06,27,16,38,27.50
2015,06,27,16,39,27.60
2015,06,27,16,40,27.70
2015,06,27,16,41,27.90
2015,06,27,16,42,27.90
2015,06,27,16,43,27.90
2015,06,27,16,44,27.80
2015,06,27,16,45,27.80
2015,06,27,16,46,27.70
2015,06,27,16,47,27.60
2015,06,27,16,48,27.50
2015,06,27,16,49,27.30
2015,06,27,16,50,27.30
2015,06,27,16,51,27.30
2015,06,27,16,52,27.20
2015,06,27,16,53,27.10
2015,06,27,16,54,27.00
2015,06,27,16,55,26.90
2015,06,27,16,56,26.80
2015,06,27,16,57,26.60
2015,06,27,16,58,26.60
2015,06,27,16,59,26.50
2015,06,27,17,00,26.40
2015,06,27,17,01,26.40
2015,06,27,17,02,26.30
2015,06,27,17,03,26.30
2015,06,27,17,04,26.10
2015,06,27,17,05,26.00
2015,06,27,17,06,26.00
2015,06,27,17,07,25.80
2015,06,27,17,08,25.70
2015,06,27,17,09,25.60
2015,06,27,17,10,25.40
2015,06,27,17,11,25.40
2015,06,27,17,12,25.40
2015,06,27,17,13,25.40
2015,06,27,17,14,25.40
2015,06,27,17,15,25.30
2015,06,27,17,16,25.20
2015,06,27,17,17,25.20
2015,06,27,17,18,25.20
2015,06,27,17,19,25.30